Flag for United Kingdom Weather past 2 weeks in Canterbury, England, United Kingdom

Now
60 °F

Cool.


Feels Like: 60 °F
Forecast: 50 / 59 °F
Wind: 13 mph from Southwest

Location: Manston

Current Time: Oct 24, 2014 at 2:32:37 PM

Latest Report: Oct 24, 2014 at 2:00 PM


Visibility: N/A

Pressure: 29.96 "Hg

Humidity: 92%

Dew point: 58 °F

Location of CanterburyLocation

Historic Weather in Canterbury — Graph

°F

Canterbury temperature yesterday

Maximum temperature yesterday: 61 °F (at 1:00 PM)
Minimum temperature yesterday: 49 °F (at 12:00 AM)
Average temperature yesterday: 55 °F

Past Weeks' High & Low Weather Summary

 TemperatureHumidityPressure
High70 °F (Oct 18, 3:00 PM)99% (Oct 14, 10:00 AM)30.27 "Hg (Oct 14, 10:00 AM)
Low47 °F (Oct 12, 8:00 AM)54% (Oct 21, 2:00 PM)29.44 "Hg (Oct 13, 6:00 AM)
Average57 °F85%29.85 "Hg
* Reported Oct 9 1:00 PM — Oct 24 1:00 PM, Canterbury, Weather by CustomWeather, © 2014

Note: Actual official high and low records may vary slightly from our data, if they occured in-between our weather recording intervals... More about our weather records

Advertising

Canterbury weather history for previous 24 hours

 ConditionsComfort  
Time TempWeatherWind HumidityBarometerVisibility
1:00 PM
Oct 24
60 °FCool.7 mph94%29.98 "HgN/A
12:00 PM60 °FCool.8 mph94%30.00 "HgN/A
11:00 AM59 °FCool.8 mph98%30.01 "HgN/A
10:00 AM58 °FLight rain. Cloudy.5 mph98%30.01 "HgN/A
9:00 AM57 °FLight freezing rain. Cloudy.8 mph98%30.01 "HgN/A
8:00 AM56 °FRain showers. Cloudy.6 mph98%30.00 "HgN/A
7:00 AM56 °FRain showers. Overcast.6 mph98%30.00 "HgN/A
6:00 AM57 °FLight rain. Overcast.8 mph98%30.00 "HgN/A
5:00 AM58 °FDrizzle. Overcast.9 mph98%30.01 "HgN/A
4:00 AM58 °FCool.12 mph95%30.01 "HgN/A
3:00 AM58 °FRain. Overcast.12 mph96%30.03 "HgN/A
2:00 AM58 °FLots of rain. Overcast.10 mph97%30.04 "HgN/A
1:00 AM58 °FCool.13 mph93%30.05 "HgN/A
12:00 AM58 °FCool.10 mph94%30.06 "HgN/A
11:00 PM
Oct 23
58 °FCool.12 mph94%30.07 "HgN/A
10:00 PM57 °FCool.13 mph95%30.08 "HgN/A
9:00 PM57 °FCool.12 mph96%30.09 "HgN/A
8:00 PM57 °FCool.14 mph95%30.09 "HgN/A
7:00 PM56 °FFog.12 mph95%30.10 "HgN/A
6:00 PM57 °FCool.13 mph91%30.09 "HgN/A
5:00 PM58 °FCool.12 mph88%30.10 "HgN/A
4:00 PM58 °FCool.13 mph87%30.11 "HgN/A
3:00 PM58 °FCool.15 mph84%30.12 "HgN/A
2:00 PM60 °FCool.17 mph73%30.13 "HgN/A
Weather by CustomWeather, © 2014

See weather overviewHow to use our weather pages